Weather History for KLHW - December, 2012

Change the Weather History Date:

Monday, December 31, 2012

  Actual Average (KSAV) Record (KSAV)
Temperature  
Mean Temperature 44 °F 49 °F  
Max Temperature 63 °F 60 °F 80 °F (1973)
Min Temperature 26 °F 39 °F 17 °F (1917)
Degree Days  
Heating Degree Days 20 16  
Month to date heating degree days 423  
Since 1 July heating degree days 690  
Cooling Degree Days 0 0  
Month to date cooling degree days 9  
Year to date cooling degree days 2458  
Moisture  
Dew Point 36 °F    
Average Humidity 79    
Maximum Humidity 98    
Minimum Humidity 45    
Precipitation  
Precipitation 0.00 in 0.10 in 1.48 in (1912)
Month to date precipitation 2.95  
Year to date precipitation 47.96  
Sea Level Pressure  
Sea Level Pressure 30.34 in    
Wind  
Wind Speed 1 mph (SW)    
Max Wind Speed 7 mph    
Max Gust Speed -    
Visibility 10 miles    
Events      
T = Trace of Precipitation, MM = Missing Value Source: NWS Daily Summary

Daily Weather History Graph

Daily Weather History Graph

Search for Another Location

Airport or City:

Trip Planner

Search our weather history database for the weather conditions in past years. The results will help you decide how hot, cold, wet, or windy it might be!

Date:

Astronomy

Dec. 31, 2012 Rise Set
Actual Time 7:26 AM EST 5:32 PM EST
Civil Twilight 6:59 AM EST 5:59 PM EST
Nautical Twilight 6:29 AM EST 6:30 PM EST
Astronomical Twilight 5:59 AM EST 6:59 PM EST
Moon 8:48 PM EST (12/31) 9:18 AM EST (12/31)
Length of Visible Light 11h 00m
Length of Day
10h 06m
Waning Gibbous, 90% of the Moon is Illuminated
Dec 31
Waning Gibbous
Jan 4
Last Quarter
Jan 11
New
Jan 18
First Quarter
Jan 26
Full

Hourly Weather History & Observations

Time (EST) Temp. Windchill Dew Point Humidity Pressure Visibility Wind Dir Wind Speed Gust Speed Precip Events Conditions
12:55 AM 28.2 °F 24.4 °F 26.4 °F 93% 30.41 in 10.0 mi NW 3.5 mph - N/A   Clear
1:55 AM 28.0 °F - 26.2 °F 93% 30.40 in 10.0 mi Calm Calm - N/A   Clear
2:55 AM 27.0 °F - 25.2 °F 93% 30.40 in 10.0 mi Calm Calm - N/A   Clear
3:55 AM 26.8 °F - 25.3 °F 94% 30.41 in 10.0 mi Calm Calm - N/A   Clear
4:55 AM 27.9 °F - 26.4 °F 94% 30.40 in 10.0 mi Calm Calm - N/A   Scattered Clouds
5:55 AM 27.7 °F - 26.4 °F 95% 30.43 in 10.0 mi Calm Calm - N/A   Clear
6:55 AM 27.7 °F - 26.2 °F 94% 30.40 in 10.0 mi Calm Calm - N/A   Clear
7:55 AM 29.5 °F - 27.9 °F 94% 30.41 in 10.0 mi Calm Calm - N/A   Clear
8:55 AM 36.5 °F - 30.7 °F 80% 30.42 in 10.0 mi Calm Calm - N/A   Clear
9:55 AM 46.0 °F - 31.5 °F 57% 30.43 in 10.0 mi Calm Calm - N/A   Overcast
10:55 AM 51.1 °F - 31.6 °F 47% 30.40 in 10.0 mi Calm Calm - N/A   Overcast
11:55 AM 56.3 °F - 35.2 °F 45% 30.38 in 10.0 mi Calm Calm - N/A   Clear
12:55 PM 58.8 °F - 39.7 °F 49% 30.32 in 10.0 mi Calm Calm - N/A   Clear
1:55 PM 60.8 °F - 42.3 °F 50% 30.30 in 10.0 mi SE 3.5 mph - N/A   Clear
2:55 PM 63.1 °F - 44.2 °F 50% 30.27 in 10.0 mi Variable 4.6 mph - N/A   Clear
3:55 PM 63.9 °F - 45.7 °F 52% 30.25 in 10.0 mi SW 6.9 mph - N/A   Clear
5:55 PM 54.9 °F - 46.9 °F 75% 30.25 in 10.0 mi Calm Calm - N/A   Clear
6:55 PM 50.0 °F - 46.8 °F 89% 30.26 in 10.0 mi Calm Calm - N/A   Clear
7:55 PM 47.5 °F - 45.3 °F 92% 30.26 in 10.0 mi Calm Calm - N/A   Clear
8:55 PM 45.5 °F - 44.4 °F 96% 30.25 in 10.0 mi Calm Calm - N/A   Partly Cloudy
9:55 PM 46.4 °F - 45.9 °F 98% 30.25 in 10.0 mi Calm Calm - N/A   Overcast
10:55 PM 47.3 °F - 46.2 °F 96% 30.25 in 10.0 mi Calm Calm - N/A   Overcast
11:55 PM 47.5 °F - 46.4 °F 96% 30.23 in 10.0 mi Calm Calm - N/A   Overcast